Auburn, AL

2:26 AM CST on November 21, 2017 (GMT -0600)
Auburn-opelika-pitts

Weather History for KAUO - January, 2014

Change the Weather History Date:

Tuesday, January 21, 2014

  Actual Average Record
Temperature  
Mean Temperature 39 °F -  
Max Temperature 52 °F - 75 °F (1999)
Min Temperature 25 °F - -7 °F (1985)
Degree Days  
Heating Degree Days 26    
Month to date heating degree days 534  
Since 1 July heating degree days 1437  
Moisture  
Dew Point 24 °F    
Average Humidity 56    
Maximum Humidity 81    
Minimum Humidity 35    
Precipitation  
Precipitation 0.00 in - 1.88 in (1979)
Month to date precipitation 1.52  
Year to date precipitation 1.52  
Sea Level Pressure  
Sea Level Pressure 29.92 in    
Wind  
Wind Speed 13 mph (WNW)    
Max Wind Speed 24 mph    
Max Gust Speed 35 mph    
Visibility 10 miles    
Events      
T = Trace of Precipitation, MM = Missing Value Source: NWS Daily Summary

Daily Weather History Graph

Daily Weather History Graph

Search for Another Location

Airport or City:

Trip Planner

Search our weather history database for the weather conditions in past years. The results will help you decide how hot, cold, wet, or windy it might be!

Date:

Astronomy

Jan. 21, 2014 Rise Set
Actual Time 6:42 AM CST 5:04 PM CST
Civil Twilight 6:15 AM CST 5:30 PM CST
Nautical Twilight 5:45 AM CST 6:00 PM CST
Astronomical Twilight 5:16 AM CST 6:30 PM CST
Moon 10:15 PM CST 9:30 AM CST
Length of Visible Light 11h 14m
Length of Day
10h 22m
Waning Gibbous, 74% of the Moon is Illuminated
Jan 21
Waning Gibbous
Jan 23
Last Quarter
Jan 30
New
Feb 6
First Quarter
Feb 14
Full

Hourly Weather History & Observations

Time (CST) Temp. Windchill Dew Point Humidity Pressure Visibility Wind Dir Wind Speed Gust Speed Precip Events Conditions
12:15 AM 44.6 °F 40.7 °F 30.2 °F 57% 29.91 in 10.0 mi SW 6.9 mph - N/A   Clear
12:35 AM 42.8 °F 40.1 °F 30.2 °F 61% 29.91 in 10.0 mi WSW 4.6 mph - N/A   Clear
12:55 AM 42.8 °F 39.3 °F 30.2 °F 61% 29.90 in 10.0 mi WSW 5.8 mph - N/A   Clear
1:15 AM 42.8 °F 39.3 °F 30.2 °F 61% 29.90 in 10.0 mi SW 5.8 mph - N/A   Clear
1:35 AM 41.0 °F 37.1 °F 30.2 °F 65% 29.89 in 10.0 mi SW 5.8 mph - N/A   Clear
1:55 AM 41.0 °F 37.1 °F 30.2 °F 65% 29.89 in 10.0 mi WSW 5.8 mph - N/A   Clear
2:15 AM 41.0 °F 37.1 °F 30.2 °F 65% 29.88 in 10.0 mi SW 5.8 mph - N/A   Clear
2:35 AM 39.2 °F 35.0 °F 30.2 °F 70% 29.87 in 10.0 mi SW 5.8 mph - N/A   Clear
2:55 AM 39.2 °F 35.9 °F 30.2 °F 70% 29.86 in 10.0 mi SSW 4.6 mph - N/A   Clear
3:15 AM 39.2 °F 35.0 °F 30.2 °F 70% 29.86 in 10.0 mi SSW 5.8 mph - N/A   Clear
3:35 AM 39.2 °F 35.0 °F 30.2 °F 70% 29.85 in 10.0 mi SSW 5.8 mph - N/A   Clear
3:55 AM 37.4 °F 32.8 °F 30.2 °F 75% 29.84 in 10.0 mi SW 5.8 mph - N/A   Clear
4:15 AM 39.2 °F 35.9 °F 32.0 °F 75% 29.83 in 10.0 mi SW 4.6 mph - N/A   Clear
4:35 AM 39.2 °F 35.0 °F 33.8 °F 81% 29.82 in 10.0 mi SSW 5.8 mph - N/A   Mostly Cloudy
4:55 AM 39.2 °F 34.2 °F 33.8 °F 81% 29.82 in 10.0 mi SSW 6.9 mph - N/A   Mostly Cloudy
5:15 AM 41.0 °F 37.1 °F 33.8 °F 76% 29.82 in 10.0 mi WSW 5.8 mph - N/A   Mostly Cloudy
5:35 AM 42.8 °F 38.0 °F 35.6 °F 76% 29.82 in 10.0 mi WSW 8.1 mph - N/A   Mostly Cloudy
5:55 AM 42.8 °F 38.0 °F 33.8 °F 70% 29.82 in 10.0 mi WSW 8.1 mph - N/A   Partly Cloudy
6:15 AM 42.8 °F 38.6 °F 35.6 °F 76% 29.82 in 10.0 mi WSW 6.9 mph - N/A   Clear
6:35 AM 42.8 °F 38.0 °F 35.6 °F 76% 29.82 in 10.0 mi WSW 8.1 mph - N/A   Mostly Cloudy
6:55 AM 42.8 °F 38.6 °F 35.6 °F 76% 29.82 in 10.0 mi WSW 6.9 mph - N/A   Overcast
7:15 AM 42.8 °F 38.0 °F 37.4 °F 81% 29.82 in 10.0 mi West 8.1 mph - N/A   Overcast
7:35 AM 44.6 °F 40.2 °F 37.4 °F 76% 29.83 in 10.0 mi West 8.1 mph - N/A   Scattered Clouds
7:55 AM 44.6 °F 38.8 °F 37.4 °F 76% 29.83 in 10.0 mi West 11.5 mph 17.3 mph N/A   Clear
8:15 AM 44.6 °F 38.4 °F 37.4 °F 76% 29.84 in 10.0 mi WNW 12.7 mph - N/A   Clear
8:35 AM 46.4 °F 39.2 °F 35.6 °F 66% 29.85 in 10.0 mi NW 18.4 mph 23.0 mph N/A   Clear
8:55 AM 48.2 °F - 32.0 °F 54% 29.86 in 10.0 mi NW 17.3 mph 25.3 mph N/A   Clear
9:15 AM 48.2 °F - 30.2 °F 50% 29.87 in 10.0 mi NNW 20.7 mph 26.5 mph N/A   Clear
9:35 AM 48.2 °F - 28.4 °F 46% 29.87 in 10.0 mi WNW 20.7 mph 27.6 mph N/A   Clear
9:55 AM 48.2 °F - 28.4 °F 46% 29.88 in 10.0 mi NW 15.0 mph 25.3 mph N/A   Clear
10:15 AM 50.0 °F - 26.6 °F 40% 29.88 in 10.0 mi NW 17.3 mph 28.8 mph N/A   Clear
10:35 AM 50.0 °F - 26.6 °F 40% 29.88 in 10.0 mi NW 17.3 mph - N/A   Clear
10:55 AM 50.0 °F - 24.8 °F 37% 29.88 in 10.0 mi WNW 17.3 mph 26.5 mph N/A   Clear
11:15 AM 51.8 °F - 24.8 °F 35% 29.87 in 10.0 mi West 17.3 mph 24.2 mph N/A   Clear
11:35 AM 51.8 °F - 24.8 °F 35% 29.87 in 10.0 mi WNW 18.4 mph 26.5 mph N/A   Clear
11:55 AM 50.0 °F - 24.8 °F 37% 29.87 in 10.0 mi WNW 20.7 mph 34.5 mph N/A   Clear
12:15 PM 51.8 °F - 24.8 °F 35% 29.87 in 10.0 mi WNW 21.9 mph 31.1 mph N/A   Scattered Clouds
12:35 PM 51.8 °F - 24.8 °F 35% 29.86 in 10.0 mi NW 16.1 mph 27.6 mph N/A   Mostly Cloudy
12:55 PM 46.4 °F 38.1 °F 23.0 °F 40% 29.87 in 10.0 mi WNW 24.2 mph 28.8 mph N/A   Mostly Cloudy
1:15 PM 48.2 °F - 23.0 °F 37% 29.88 in 10.0 mi NW 23.0 mph 34.5 mph N/A   Mostly Cloudy
1:35 PM 46.4 °F 38.7 °F 23.0 °F 40% 29.87 in 10.0 mi WNW 20.7 mph 31.1 mph N/A   Mostly Cloudy
1:55 PM 46.4 °F 38.3 °F 24.8 °F 43% 29.88 in 10.0 mi NNW 23.0 mph 26.5 mph N/A   Mostly Cloudy
2:15 PM 46.4 °F 38.7 °F 24.8 °F 43% 29.89 in 10.0 mi WNW 20.7 mph 26.5 mph N/A   Scattered Clouds
2:35 PM 44.6 °F 37.4 °F 21.2 °F 39% 29.89 in 10.0 mi NNW 16.1 mph 31.1 mph N/A   Mostly Cloudy
2:55 PM 44.6 °F 36.6 °F 21.2 °F 39% 29.90 in 10.0 mi NW 19.6 mph 28.8 mph N/A   Scattered Clouds
3:15 PM 42.8 °F 34.5 °F 21.2 °F 42% 29.92 in 10.0 mi NW 18.4 mph 27.6 mph N/A   Partly Cloudy
3:35 PM 42.8 °F 33.5 °F 21.2 °F 42% 29.93 in 10.0 mi WNW 23.0 mph 29.9 mph N/A   Clear
3:55 PM 42.8 °F 35.1 °F 17.6 °F 36% 29.94 in 10.0 mi NW 16.1 mph 29.9 mph N/A   Clear
4:15 PM 41.0 °F 32.5 °F 17.6 °F 39% 29.95 in 10.0 mi NW 17.3 mph 26.5 mph N/A   Clear
4:35 PM 39.2 °F 29.6 °F 17.6 °F 42% 29.96 in 10.0 mi NW 19.6 mph 27.6 mph N/A   Clear
4:55 PM 37.4 °F 26.9 °F 17.6 °F 45% 29.99 in 10.0 mi NNW 20.7 mph 29.9 mph N/A   Clear
5:15 PM 35.6 °F 25.2 °F 17.6 °F 48% 29.99 in 10.0 mi NW 18.4 mph 26.5 mph N/A   Clear
5:35 PM 33.8 °F 22.5 °F 17.6 °F 52% 30.01 in 10.0 mi NW 19.6 mph 26.5 mph N/A   Clear
5:55 PM 32.0 °F 20.8 °F 17.6 °F 55% 30.02 in 10.0 mi NW 17.3 mph 27.6 mph N/A   Clear
6:15 PM 30.2 °F 18.9 °F 17.6 °F 60% 30.04 in 10.0 mi NNW 16.1 mph 26.5 mph N/A   Clear
6:35 PM 30.2 °F 19.8 °F 15.8 °F 55% 30.03 in 10.0 mi NNW 13.8 mph 21.9 mph N/A   Clear
6:55 PM 30.2 °F 19.8 °F 15.8 °F 55% 30.04 in 10.0 mi NNW 13.8 mph 21.9 mph N/A   Clear
7:15 PM 28.4 °F 18.0 °F 15.8 °F 59% 30.04 in 10.0 mi NW 12.7 mph 20.7 mph N/A   Clear
7:35 PM 28.4 °F 18.0 °F 14.0 °F 55% 30.04 in 10.0 mi NNW 12.7 mph 21.9 mph N/A   Clear
7:55 PM 28.4 °F 17.5 °F 14.0 °F 55% 30.05 in 10.0 mi NW 13.8 mph 20.7 mph N/A   Clear
8:15 PM 26.6 °F 16.2 °F 14.0 °F 59% 30.05 in 10.0 mi NW 11.5 mph 21.9 mph N/A   Clear
8:35 PM 26.6 °F 16.2 °F 14.0 °F 59% 30.05 in 10.0 mi NW 11.5 mph 20.7 mph N/A   Clear
8:55 PM 26.6 °F 14.7 °F 12.2 °F 55% 30.05 in 10.0 mi NW 15.0 mph 21.9 mph N/A   Clear
9:15 PM 26.6 °F 18.2 °F 12.2 °F 55% 30.05 in 10.0 mi NW 8.1 mph - N/A   Clear
9:35 PM 26.6 °F 17.5 °F 12.2 °F 55% 30.06 in 10.0 mi NNW 9.2 mph - N/A   Clear
9:55 PM 24.8 °F 17.9 °F 12.2 °F 59% 30.06 in 10.0 mi NNW 5.8 mph - N/A   Clear
10:15 PM 26.6 °F 17.5 °F 12.2 °F 55% 30.06 in 10.0 mi NNW 9.2 mph - N/A   Clear
10:35 PM 24.8 °F 13.4 °F 12.2 °F 59% 30.06 in 10.0 mi NNW 12.7 mph - N/A   Clear
10:55 PM 24.8 °F 14.0 °F 12.2 °F 59% 30.06 in 10.0 mi NNW 11.5 mph 16.1 mph N/A   Clear
11:15 PM 24.8 °F 14.0 °F 12.2 °F 59% 30.06 in 10.0 mi NNW 11.5 mph - N/A   Clear
11:35 PM 24.8 °F 14.0 °F 10.4 °F 54% 30.06 in 10.0 mi NNW 11.5 mph 21.9 mph N/A   Clear
11:55 PM 24.8 °F 12.4 °F 10.4 °F 54% 30.07 in 10.0 mi NNW 15.0 mph 19.6 mph N/A   Clear